Weather History for Sparta, IL

Change the Weather History Date:

Saturday, March 2, 2013

  Actual Average (KBLV) Record (KBLV)
Temperature  
Mean Temperature 30 °F -  
Max Temperature 33 °F 56 °F 79 °F (1992)
Min Temperature 26 °F 33 °F 4 °F (1980)
Degree Days  
Heating Degree Days 36    
Moisture  
Dew Point 23 °F    
Average Humidity 76    
Maximum Humidity 93    
Minimum Humidity 56    
Precipitation  
Precipitation 0.00 in - - ()
Sea Level Pressure  
Sea Level Pressure 30.20 in    
Wind  
Wind Speed 9 mph (NW)    
Max Wind Speed 14 mph    
Max Gust Speed 20 mph    
Visibility 9 miles    
Events Snow    
Averages and records for this station are not official NWS values.
T = Trace of Precipitation, MM = Missing Value Source: NWS Daily Summary

Daily Weather History Graph

Daily Weather History Graph

Search for Another Location

Airport:

Trip Planner

Search our weather history database for the weather conditions in past years. The results will help you decide how hot, cold, wet, or windy it might be!

Date:

Astronomy

Mar. 02, 2013 Rise Set
Actual Time 6:28 AM CST 5:53 PM CST
Civil Twilight 6:02 AM CST 6:19 PM CST
Nautical Twilight 5:31 AM CST 6:50 PM CST
Astronomical Twilight 5:01 AM CST 7:21 PM CST
Moon 11:27 PM CST (3/2) 9:02 AM CST (3/2)
Length of Visible Light 12h 17m
Length of Day
11h 24m
Waning Gibbous, 74% of the Moon is Illuminated
Mar 2
Waning Gibbous
Mar 4
Last Quarter
Mar 11
New
Mar 19
First Quarter
Mar 27
Full

Hourly Weather History & Observations

Time (CST) Temp. Windchill Dew Point Humidity Pressure Visibility Wind Dir Wind Speed Gust Speed Precip Events Conditions
12:15 AM 30.2 °F 21.9 °F 26.6 °F 86% 30.17 in 5.0 mi NNW 9.2 mph - N/A Snow Light Snow
12:35 AM 30.2 °F 22.6 °F 26.6 °F 86% 30.17 in 7.0 mi NNW 8.1 mph - N/A Snow Light Snow
12:55 AM 30.2 °F 21.9 °F 26.6 °F 86% 30.17 in 10.0 mi NNW 9.2 mph - N/A Snow Light Snow
1:15 AM 30.2 °F 20.8 °F 26.6 °F 86% 30.18 in 10.0 mi NNW 11.5 mph - N/A   Overcast
1:35 AM 30.2 °F 21.9 °F 26.6 °F 86% 30.18 in 10.0 mi NNW 9.2 mph - N/A   Overcast
1:55 AM 28.4 °F 21.2 °F 26.6 °F 93% 30.17 in 10.0 mi NNW 6.9 mph - N/A Snow Light Snow
2:15 AM 28.4 °F 21.2 °F 26.6 °F 93% 30.17 in 10.0 mi NNW 6.9 mph - N/A Snow Light Snow
2:35 AM 28.4 °F 19.1 °F 26.6 °F 93% 30.16 in 10.0 mi NW 10.4 mph - N/A Snow Light Snow
2:55 AM 28.4 °F 19.1 °F 24.8 °F 86% 30.17 in 10.0 mi NW 10.4 mph 16.1 mph N/A Snow Light Snow
3:15 AM 28.4 °F 19.7 °F 24.8 °F 86% 30.16 in 10.0 mi NNW 9.2 mph - N/A Snow Light Snow
3:35 AM 28.4 °F 20.4 °F 24.8 °F 86% 30.16 in 10.0 mi NNW 8.1 mph - N/A Snow Light Snow
3:55 AM 28.4 °F 19.1 °F 24.8 °F 86% 30.16 in 10.0 mi NW 10.4 mph - N/A Snow Light Snow
4:15 AM 28.4 °F 20.4 °F 24.8 °F 86% 30.16 in 10.0 mi NW 8.1 mph - N/A Snow Light Snow
4:35 AM 28.4 °F 20.4 °F 24.8 °F 86% 30.17 in 10.0 mi NNW 8.1 mph - N/A Snow Light Snow
4:55 AM 28.4 °F 19.1 °F 24.8 °F 86% 30.17 in 10.0 mi NNW 10.4 mph - N/A Snow Light Snow
5:15 AM 28.4 °F 21.2 °F 24.8 °F 86% 30.17 in 10.0 mi NNW 6.9 mph - N/A Snow Light Snow
5:35 AM 28.4 °F 18.0 °F 24.8 °F 86% 30.17 in 10.0 mi NNW 12.7 mph - N/A Snow Light Snow
5:55 AM 28.4 °F 20.4 °F 24.8 °F 86% 30.18 in 10.0 mi NNW 8.1 mph - N/A   Overcast
6:15 AM 28.4 °F 19.1 °F 24.8 °F 86% 30.18 in 10.0 mi NNW 10.4 mph - N/A Snow Light Snow
6:35 AM 28.4 °F 19.1 °F 24.8 °F 86% 30.19 in 7.0 mi NW 10.4 mph - N/A Snow Light Snow
6:55 AM 28.4 °F 19.7 °F 24.8 °F 86% 30.20 in 10.0 mi NNW 9.2 mph - N/A Snow Light Snow
7:15 AM 28.4 °F 19.7 °F 24.8 °F 86% 30.20 in 10.0 mi NNW 9.2 mph - N/A Snow Light Snow
7:35 AM 28.4 °F 20.4 °F 24.8 °F 86% 30.21 in 10.0 mi NW 8.1 mph - N/A Snow Light Snow
7:55 AM 28.4 °F 18.5 °F 24.8 °F 86% 30.21 in 10.0 mi NNW 11.5 mph - N/A Snow Light Snow
8:15 AM 28.4 °F 18.0 °F 24.8 °F 86% 30.22 in 7.0 mi NNW 12.7 mph 16.1 mph N/A Snow Light Snow
8:35 AM 28.4 °F 19.1 °F 24.8 °F 86% 30.23 in 7.0 mi NNW 10.4 mph 16.1 mph N/A Snow Light Snow
8:55 AM 28.4 °F 20.4 °F 24.8 °F 86% 30.23 in 3.0 mi NW 8.1 mph 17.3 mph N/A Snow Light Snow
9:15 AM 28.4 °F 19.1 °F 24.8 °F 86% 30.23 in 5.0 mi NNW 10.4 mph - N/A Snow Light Snow
9:35 AM 28.4 °F 20.4 °F 24.8 °F 86% 30.23 in 4.0 mi NW 8.1 mph 17.3 mph N/A Snow Light Snow
9:55 AM 28.4 °F 18.5 °F 24.8 °F 86% 30.23 in 5.0 mi NNW 11.5 mph - N/A Snow Light Snow
10:15 AM 28.4 °F 18.0 °F 24.8 °F 86% 30.23 in 10.0 mi NNW 12.7 mph 17.3 mph N/A Snow Light Snow
10:35 AM 28.4 °F 19.7 °F 23.0 °F 80% 30.24 in 10.0 mi NNW 9.2 mph 18.4 mph N/A Snow Light Snow
10:55 AM 28.4 °F 18.5 °F 23.0 °F 80% 30.24 in 10.0 mi NW 11.5 mph 18.4 mph N/A Snow Light Snow
11:15 AM 30.2 °F 20.2 °F 23.0 °F 75% 30.23 in 10.0 mi NW 12.7 mph 17.3 mph N/A   Overcast
11:35 AM 30.2 °F 20.2 °F 23.0 °F 75% 30.23 in 10.0 mi NNW 12.7 mph - N/A   Overcast
11:55 AM 30.2 °F 20.8 °F 23.0 °F 75% 30.23 in 10.0 mi NW 11.5 mph - N/A   Overcast
12:15 PM 30.2 °F 20.2 °F 23.0 °F 75% 30.22 in 10.0 mi NW 12.7 mph - N/A   Overcast
12:35 PM 32.0 °F 23.0 °F 23.0 °F 69% 30.21 in 10.0 mi NW 11.5 mph - N/A   Overcast
12:55 PM 32.0 °F 22.5 °F 24.8 °F 75% 30.21 in 10.0 mi NW 12.7 mph 18.4 mph N/A   Overcast
1:15 PM 32.0 °F 23.6 °F 23.0 °F 69% 30.21 in 10.0 mi NW 10.4 mph - N/A   Overcast
1:35 PM 32.0 °F 23.6 °F 23.0 °F 69% 30.20 in 10.0 mi WNW 10.4 mph 16.1 mph N/A   Mostly Cloudy
1:55 PM 32.0 °F 23.6 °F 23.0 °F 69% 30.20 in 10.0 mi NW 10.4 mph 18.4 mph N/A Snow Light Snow
2:15 PM 32.0 °F 22.1 °F 23.0 °F 69% 30.20 in 10.0 mi NW 13.8 mph 18.4 mph N/A   Overcast
2:35 PM 32.0 °F 23.0 °F 23.0 °F 69% 30.20 in 7.0 mi NNW 11.5 mph 18.4 mph N/A   Overcast
2:55 PM 33.8 °F 24.8 °F 23.0 °F 65% 30.19 in 10.0 mi WNW 12.7 mph 17.3 mph N/A   Overcast
3:15 PM 33.8 °F 24.3 °F 21.2 °F 60% 30.20 in 10.0 mi North 13.8 mph 19.6 mph N/A   Overcast
3:35 PM 33.8 °F 26.4 °F 19.4 °F 56% 30.20 in 10.0 mi NW 9.2 mph 18.4 mph N/A   Mostly Cloudy
3:55 PM 33.8 °F 26.4 °F 19.4 °F 56% 30.20 in 10.0 mi NNW 9.2 mph 16.1 mph N/A   Mostly Cloudy
4:15 PM 33.8 °F 25.8 °F 19.4 °F 56% 30.20 in 10.0 mi NW 10.4 mph 17.3 mph N/A   Overcast
4:35 PM 33.8 °F 25.3 °F 19.4 °F 56% 30.20 in 10.0 mi NW 11.5 mph - N/A   Overcast
4:55 PM 33.8 °F 27.0 °F 19.4 °F 56% 30.20 in 10.0 mi NW 8.1 mph - N/A   Overcast
5:15 PM 33.8 °F 27.0 °F 19.4 °F 56% 30.21 in 10.0 mi WNW 8.1 mph - N/A   Overcast
5:35 PM 32.0 °F 24.2 °F 19.4 °F 60% 30.21 in 10.0 mi NW 9.2 mph - N/A   Mostly Cloudy
5:55 PM 32.0 °F 25.6 °F 19.4 °F 60% 30.22 in 10.0 mi NW 6.9 mph - N/A   Overcast
6:15 PM 32.0 °F 27.5 °F 19.4 °F 60% 30.22 in 10.0 mi NW 4.6 mph - N/A   Mostly Cloudy
6:35 PM 32.0 °F 25.6 °F 19.4 °F 60% 30.22 in 10.0 mi NW 6.9 mph - N/A   Overcast
6:55 PM 30.2 °F 23.4 °F 19.4 °F 64% 30.23 in 10.0 mi NNW 6.9 mph - N/A   Overcast
7:15 PM 30.2 °F 24.3 °F 19.4 °F 64% 30.22 in 10.0 mi NNW 5.8 mph - N/A   Mostly Cloudy
7:35 PM 30.2 °F 26.7 °F 21.2 °F 69% 30.22 in 10.0 mi WNW 3.5 mph - N/A   Overcast
7:55 PM 30.2 °F 24.3 °F 21.2 °F 69% 30.22 in 10.0 mi NW 5.8 mph - N/A   Overcast
8:15 PM 30.2 °F 26.7 °F 21.2 °F 69% 30.23 in 10.0 mi NW 3.5 mph - N/A   Overcast
8:35 PM 30.2 °F 26.7 °F 21.2 °F 69% 30.23 in 10.0 mi WNW 3.5 mph - N/A   Mostly Cloudy
8:55 PM 30.2 °F 25.4 °F 21.2 °F 69% 30.23 in 10.0 mi WNW 4.6 mph - N/A   Mostly Cloudy
9:15 PM 28.4 °F 22.2 °F 21.2 °F 74% 30.23 in 10.0 mi WNW 5.8 mph - N/A   Scattered Clouds
9:35 PM 28.4 °F 23.3 °F 21.2 °F 74% 30.23 in 10.0 mi WNW 4.6 mph - N/A   Clear
9:55 PM 28.4 °F 23.3 °F 21.2 °F 74% 30.23 in 10.0 mi WNW 4.6 mph - N/A   Clear
10:15 PM 28.4 °F 23.3 °F 21.2 °F 74% 30.23 in 10.0 mi WNW 4.6 mph - N/A   Clear
10:35 PM 28.4 °F 22.2 °F 21.2 °F 74% 30.23 in 10.0 mi WNW 5.8 mph - N/A   Clear
10:55 PM 26.6 °F 21.2 °F 19.4 °F 74% 30.22 in 10.0 mi WNW 4.6 mph - N/A   Clear
11:15 PM 26.6 °F 21.2 °F 19.4 °F 74% 30.22 in 10.0 mi WNW 4.6 mph - N/A   Clear
11:35 PM 26.6 °F 21.2 °F 19.4 °F 74% 30.21 in 10.0 mi WNW 4.6 mph - N/A   Clear
11:55 PM 26.6 °F 21.2 °F 19.4 °F 74% 30.21 in 10.0 mi WNW 4.6 mph - N/A   Clear